Location: Unspecified
(49.9820°N, 20.4363°E)
Time: 21:09:59
(UTC+02:00)

ISS - Pass Details

Date: 22 May 2025
Orbit: 415 x 417 km, 51.6° (Epoch: 12 June)

Event Time Altitude Azimuth Distance (km) Brightness Sun altitude
Rises 21:29:32 0° 288° (WNW) 2,361 1.2 -8.4°
Reaches altitude 10° 21:31:40 10° 283° (WNW) 1,495 0.0 -8.7°
Maximum altitude 21:34:57 53° 206° (SSW) 516 -3.5 -9.0°
Enters shadow 21:37:43 14° 130° (SE) 1,293 -1.9 -9.3°
